QPF
0.01 0.03 0.08 0.14 0.18 0.19 0.19 0.20 0.27 0.28 0.16 0.11 0.08 0.07 0.07 0.10 0.10 0.07 0.06 0.06 0.07 0.06 0.06 0.06 0.06 0.06 0.08 0.11 0.14 0.18 0.21 0.20 0.16 0.11 0.08 0.06 0.05 0.04 0.04 0.04 0.03 0.02 0.01 0.01
0.01 0.02 0.06 0.11 0.14 0.18 0.21 0.21 0.17 0.11 0.09 0.06 0.05 0.06 0.05 0.04 0.04 0.04 0.05 0.06 0.07 0.07 0.07 0.07 0.06 0.06 0.06 0.07 0.10 0.14 0.17 0.17 0.14 0.09 0.07 0.06 0.06 0.06 0.05 0.04 0.04 0.03 0.02 0.02
0.00 0.01 0.02 0.04 0.05 0.06 0.09 0.08 0.05 0.06 0.08 0.05 0.03 0.05 0.04 0.03 0.03 0.02 0.03 0.05 0.06 0.05 0.05 0.05 0.04 0.04 0.04 0.05 0.08 0.10 0.12 0.12 0.09 0.06 0.05 0.06 0.05 0.05 0.04 0.03 0.03 0.03 0.02 0.02
0.00 0.00 0.01 0.01 0.01 0.01 0.02 0.03 0.04 0.05 0.04 0.04 0.04 0.03 0.03 0.03 0.02 0.02 0.02 0.03 0.03 0.04 0.03 0.03 0.02 0.03 0.03 0.04 0.05 0.07 0.07 0.06 0.06 0.05 0.04 0.03 0.03 0.03 0.02 0.02 0.02 0.02 0.03 0.02
0.00 0.00 0.00 0.00 0.00 0.00 0.01 0.02 0.02 0.03 0.03 0.03 0.05 0.04 0.03 0.02 0.01 0.01 0.01 0.01 0.01 0.01 0.01 0.01 0.01 0.01 0.01 0.01 0.02 0.02 0.02 0.02 0.02 0.02 0.01 0.01 0.01 0.01 0.01 0.01 0.01 0.01 0.01 0.02
0.00 0.00 0.00 0.00 0.00 0.00 0.00 0.01 0.02 0.02 0.02 0.02 0.02 0.02 0.01 0.01 0.01 0.00 0.00 0.00 0.00 0.00 0.00 0.00 0.00 0.01 0.01 0.00 0.01 0.01 0.01 0.00 0.00 0.00 0.00 0.00 0.00 0.00 0.00 0.00 0.00 0.01 0.01 0.01
0.00 0.00 0.00 0.00 0.00 0.00 0.00 0.01 0.01 0.00 0.00 0.00 0.01 0.01 0.00 0.00 0.00 0.00 0.00 0.00 0.00 0.00 0.00 0.00 0.00 0.00 0.00 0.00 0.00 0.00 0.00 0.00 0.00 0.00 0.00 0.00 0.00 0.00 0.00 0.00 0.00 0.00 0.01 0.01
0.00 0.00 0.00 0.00 0.00 0.00 0.00 0.00 0.00 0.00 0.00 0.00 0.00 0.00 0.00 0.01 0.00 0.00 0.00 0.00 0.00 0.00 0.00 0.00 0.00 0.00 0.00 0.00 0.00 0.00 0.00 0.00 0.00 0.00 0.00 0.00 0.00 0.00 0.00 0.00 0.00 0.00 0.00 0.01
0.00 0.00 0.00 0.00 0.00 0.00 0.00 0.00 0.00 0.00 0.00 0.00 0.00 0.00 0.00 0.00 0.00 0.00 0.00 0.00 0.00 0.00 0.00 0.00 0.00 0.00 0.00 0.00 0.00 0.00 0.00 0.00 0.00 0.00 0.00 0.00 0.00 0.00 0.00 0.00 0.00 0.00 0.00 0.00
0.00 0.00 0.00 0.00 0.00 0.00 0.00 0.00 0.00 0.00 0.00 0.00 0.00 0.00 0.00 0.00 0.00 0.00 0.00 0.00 0.00 0.00 0.00 0.00 0.00 0.00 0.00 0.00 0.00 0.00 0.00 0.00 0.00 0.00 0.00 0.00 0.00 0.00 0.00 0.00 0.00 0.00 0.00 0.00
0.00 0.00 0.00 0.00 0.00 0.00 0.00 0.00 0.00 0.00 0.00 0.00 0.00 0.00 0.00 0.00 0.00 0.00 0.00 0.00 0.00 0.00 0.00 0.00 0.00 0.00 0.00 0.00 0.00 0.00 0.00 0.00 0.00 0.00 0.00 0.00 0.00 0.00 0.00 0.00 0.00 0.00 0.00 0.00
0.00 0.00 0.00 0.00 0.00 0.00 0.00 0.00 0.00 0.00 0.00 0.00 0.00 0.00 0.00 0.00 0.00 0.00 0.00 0.00 0.00 0.00 0.00 0.00 0.00 0.00 0.00 0.00 0.00 0.00 0.00 0.00 0.00 0.00 0.00 0.00 0.00 0.00 0.00 0.00 0.00 0.00 0.00 0.00
0.00 0.00 0.00 0.00 0.00 0.00 0.00 0.00 0.00 0.00 0.00 0.00 0.00 0.00 0.00 0.00 0.00 0.00 0.00 0.00 0.00 0.00 0.00 0.00 0.00 0.00 0.00 0.00 0.00 0.00 0.00 0.00 0.00 0.00 0.00 0.00 0.00 0.00 0.00 0.00 0.00 0.00 0.00 0.00
0.00 0.00 0.00 0.00 0.00 0.00 0.00 0.00 0.00 0.00 0.00 0.00 0.00 0.00 0.00 0.00 0.00 0.00 0.00 0.00 0.00 0.00 0.00 0.00 0.00 0.00 0.00 0.00 0.00 0.00 0.00 0.00 0.00 0.00 0.00 0.00 0.00 0.00 0.00 0.00 0.00 0.00 0.00 0.00
0.00 0.00 0.00 0.00 0.00 0.00 0.00 0.00 0.00 0.00 0.00 0.00 0.00 0.00 0.00 0.00 0.00 0.00 0.00 0.00 0.00 0.00 0.00 0.00 0.00 0.00 0.00 0.00 0.00 0.00 0.00 0.00 0.00 0.00 0.00 0.00 0.00 0.00 0.00 0.00 0.00 0.00 0.00 0.00
0.00 0.00 0.00 0.00 0.00 0.00 0.00 0.00 0.00 0.00 0.00 0.00 0.00 0.00 0.00 0.00 0.00 0.00 0.00 0.00 0.00 0.00 0.00 0.00 0.00 0.00 0.00 0.00 0.00 0.00 0.00 0.00 0.00 0.00 0.00 0.00 0.00 0.00 0.00 0.00 0.00 0.00 0.00 0.00
0.00 0.00 0.00 0.00 0.00 0.00 0.00 0.00 0.00 0.00 0.00 0.00 0.00 0.00 0.00 0.00 0.00 0.00 0.00 0.00 0.00 0.00 0.00 0.00 0.00 0.00 0.00 0.00 0.00 0.00 0.00 0.00 0.00 0.00 0.00 0.00 0.00 0.00 0.00 0.00 0.00 0.00 0.00 0.00
0.00 0.00 0.00 0.00 0.00 0.00 0.00 0.00 0.00 0.00 0.00 0.00 0.00 0.00 0.00 0.00 0.00 0.00 0.00 0.00 0.00 0.00 0.00 0.00 0.00 0.00 0.00 0.00 0.00 0.00 0.00 0.00 0.00 0.00 0.00 0.00 0.00 0.00 0.00 0.00 0.00 0.00 0.00 0.00
0.00 0.00 0.00 0.00 0.00 0.00 0.00 0.00 0.00 0.00 0.00 0.00 0.00 0.00 0.00 0.00 0.00 0.00 0.00 0.00 0.00 0.00 0.00 0.00 0.00 0.00 0.00 0.00 0.00 0.00 0.00 0.00 0.00 0.00 0.00 0.00 0.00 0.00 0.00 0.00 0.00 0.00 0.00 0.00
0.00 0.00 0.00 0.00 0.00 0.00 0.00 0.00 0.00 0.00 0.00 0.00 0.00 0.00 0.00 0.00 0.00 0.00 0.00 0.00 0.00 0.00 0.00 0.00 0.00 0.00 0.00 0.00 0.00 0.00 0.00 0.00 0.00 0.00 0.00 0.00 0.00 0.00 0.00 0.00 0.00 0.00 0.00 0.00
0.00 0.00 0.00 0.00 0.00 0.00 0.00 0.00 0.00 0.00 0.00 0.00 0.00 0.00 0.00 0.00 0.00 0.00 0.00 0.00 0.00 0.00 0.00 0.00 0.00 0.00 0.00 0.00 0.00 0.00 0.00 0.00 0.00 0.00 0.00 0.00 0.00 0.00 0.00 0.00 0.00 0.00 0.00 0.00
0.00 0.00 0.00 0.00 0.00 0.00 0.00 0.00 0.00 0.00 0.00 0.00 0.00 0.00 0.00 0.00 0.00 0.00 0.00 0.00 0.00 0.00 0.00 0.00 0.00 0.00 0.00 0.00 0.00 0.00 0.00 0.00 0.00 0.00 0.00 0.00 0.00 0.00 0.00 0.00 0.00 0.00 0.00 0.00
0.00 0.00 0.00 0.00 0.00 0.00 0.00 0.00 0.00 0.00 0.00 0.00 0.00 0.00 0.00 0.00 0.00 0.00 0.00 0.00 0.00 0.00 0.00 0.00 0.00 0.00 0.00 0.00 0.00 0.00 0.00 0.00 0.00 0.00 0.00 0.00 0.00 0.00 0.00 0.00 0.00 0.00 0.00 0.00
0.00 0.00 0.00 0.00 0.00 0.00 0.00 0.00 0.00 0.00 0.00 0.00 0.00 0.00 0.00 0.00 0.00 0.00 0.00 0.00 0.00 0.00 0.00 0.00 0.00 0.00 0.00 0.00 0.00 0.00 0.00 0.00 0.00 0.00 0.00 0.00 0.00 0.00 0.00 0.00 0.00 0.00 0.00 0.00
0.00 0.00 0.00 0.00 0.00 0.00 0.00 0.00 0.00 0.00 0.00 0.00 0.00 0.00 0.00 0.00 0.00 0.00 0.00 0.00 0.00 0.00 0.00 0.00 0.00 0.00 0.00 0.00 0.00 0.00 0.00 0.00 0.00 0.00 0.00 0.00 0.00 0.00 0.00 0.00 0.00 0.00 0.00 0.00
0.00 0.00 0.00 0.00 0.00 0.00 0.00 0.00 0.00 0.00 0.00 0.00 0.00 0.00 0.00 0.00 0.00 0.00 0.00 0.00 0.00 0.00 0.00 0.00 0.00 0.00 0.00 0.00 0.00 0.00 0.00 0.00 0.00 0.00 0.00 0.00 0.00 0.00 0.00 0.00 0.00 0.00 0.00 0.00
0.00 0.00 0.00 0.00 0.00 0.00 0.00 0.00 0.00 0.00 0.00 0.00 0.00 0.00 0.00 0.00 0.00 0.00 0.00 0.00 0.00 0.00 0.00 0.00 0.00 0.00 0.00 0.00 0.00 0.00 0.00 0.00 0.00 0.00 0.00 0.00 0.00 0.00 0.00 0.00 0.00 0.00 0.00 0.00
MSLP
1021.84 1021.91 1021.94 1021.94 1021.90 1021.80 1021.64 1021.41 1021.09 1020.68 1020.18 1019.60 1018.94 1018.23 1017.48 1016.74 1016.01 1015.33 1014.71 1014.16 1013.70 1013.31 1013.00 1012.74 1012.53 1012.35 1012.19 1012.04 1011.91 1011.78 1011.67 1011.59 1011.54 1011.52 1011.55 1011.60 1011.68 1011.78 1011.87 1011.96 1012.03 1012.10 1012.17 1012.25
1022.44 1022.52 1022.55 1022.52 1022.44 1022.31 1022.11 1021.85 1021.52 1021.13 1020.65 1020.12 1019.52 1018.87 1018.19 1017.50 1016.81 1016.15 1015.53 1014.97 1014.48 1014.06 1013.71 1013.42 1013.17 1012.96 1012.78 1012.61 1012.45 1012.31 1012.17 1012.07 1011.99 1011.93 1011.92 1011.92 1011.95 1011.98 1012.01 1012.03 1012.03 1012.03 1012.03 1012.05
1023.08 1023.16 1023.17 1023.11 1022.99 1022.82 1022.59 1022.30 1021.96 1021.57 1021.13 1020.64 1020.10 1019.51 1018.89 1018.25 1017.60 1016.96 1016.35 1015.78 1015.27 1014.83 1014.46 1014.14 1013.88 1013.66 1013.46 1013.29 1013.12 1012.96 1012.82 1012.69 1012.58 1012.49 1012.42 1012.38 1012.34 1012.30 1012.26 1012.20 1012.12 1012.04 1011.96 1011.90
1023.70 1023.75 1023.73 1023.64 1023.48 1023.26 1022.99 1022.69 1022.34 1021.96 1021.55 1021.09 1020.59 1020.06 1019.48 1018.88 1018.27 1017.65 1017.05 1016.49 1015.98 1015.53 1015.15 1014.84 1014.58 1014.36 1014.18 1014.01 1013.85 1013.69 1013.54 1013.39 1013.26 1013.13 1013.02 1012.92 1012.82 1012.72 1012.61 1012.47 1012.32 1012.16 1012.00 1011.87
1024.20 1024.22 1024.16 1024.02 1023.82 1023.57 1023.28 1022.96 1022.61 1022.23 1021.83 1021.40 1020.94 1020.44 1019.90 1019.33 1018.74 1018.15 1017.57 1017.02 1016.53 1016.09 1015.73 1015.43 1015.19 1015.00 1014.84 1014.70 1014.56 1014.41 1014.26 1014.11 1013.95 1013.80 1013.66 1013.51 1013.37 1013.22 1013.05 1012.85 1012.64 1012.42 1012.19 1011.99
1024.49 1024.47 1024.37 1024.20 1023.97 1023.70 1023.39 1023.06 1022.71 1022.34 1021.96 1021.55 1021.10 1020.63 1020.11 1019.57 1019.00 1018.43 1017.87 1017.35 1016.87 1016.47 1016.14 1015.87 1015.67 1015.52 1015.40 1015.29 1015.18 1015.06 1014.93 1014.78 1014.62 1014.46 1014.29 1014.12 1013.95 1013.76 1013.56 1013.34 1013.09 1012.82 1012.55 1012.29
1024.52 1024.46 1024.32 1024.13 1023.89 1023.62 1023.31 1022.99 1022.65 1022.30 1021.93 1021.53 1021.11 1020.64 1020.15 1019.62 1019.07 1018.52 1017.99 1017.49 1017.05 1016.67 1016.38 1016.16 1016.00 1015.90 1015.83 1015.76 1015.69 1015.60 1015.50 1015.37 1015.22 1015.06 1014.89 1014.72 1014.54 1014.34 1014.13 1013.90 1013.63 1013.35 1013.05 1012.76
1024.27 1024.17 1024.02 1023.82 1023.59 1023.34 1023.06 1022.76 1022.45 1022.13 1021.78 1021.40 1020.99 1020.55 1020.07 1019.56 1019.03 1018.49 1017.98 1017.50 1017.09 1016.75 1016.49 1016.31 1016.20 1016.15 1016.12 1016.10 1016.07 1016.03 1015.95 1015.86 1015.73 1015.59 1015.44 1015.28 1015.11 1014.93 1014.73 1014.50 1014.24 1013.96 1013.66 1013.35
1023.77 1023.64 1023.49 1023.31 1023.12 1022.90 1022.67 1022.42 1022.16 1021.87 1021.56 1021.22 1020.84 1020.41 1019.95 1019.46 1018.94 1018.43 1017.93 1017.48 1017.09 1016.77 1016.54 1016.39 1016.31 1016.28 1016.30 1016.32 1016.34 1016.33 1016.30 1016.24 1016.15 1016.04 1015.92 1015.79 1015.65 1015.49 1015.31 1015.11 1014.87 1014.61 1014.31 1014.00
1023.07 1022.94 1022.81 1022.67 1022.52 1022.37 1022.21 1022.03 1021.82 1021.59 1021.33 1021.03 1020.69 1020.29 1019.86 1019.39 1018.89 1018.39 1017.91 1017.47 1017.09 1016.79 1016.56 1016.42 1016.36 1016.35 1016.39 1016.44 1016.49 1016.53 1016.54 1016.52 1016.47 1016.41 1016.32 1016.23 1016.12 1015.99 1015.85 1015.67 1015.47 1015.22 1014.95 1014.64
1022.26 1022.15 1022.05 1021.97 1021.89 1021.82 1021.73 1021.62 1021.49 1021.33 1021.13 1020.88 1020.58 1020.23 1019.83 1019.39 1018.92 1018.44 1017.97 1017.53 1017.15 1016.83 1016.60 1016.45 1016.37 1016.36 1016.40 1016.47 1016.54 1016.61 1016.66 1016.69 1016.69 1016.67 1016.63 1016.57 1016.50 1016.41 1016.29 1016.15 1015.98 1015.76 1015.51 1015.22
1021.42 1021.35 1021.31 1021.30 1021.30 1021.30 1021.29 1021.26 1021.20 1021.11 1020.96 1020.77 1020.52 1020.22 1019.86 1019.45 1019.01 1018.54 1018.08 1017.64 1017.24 1016.90 1016.64 1016.46 1016.35 1016.32 1016.35 1016.41 1016.50 1016.60 1016.68 1016.75 1016.80 1016.83 1016.83 1016.81 1016.78 1016.72 1016.63 1016.52 1016.38 1016.19 1015.97 1015.71
1020.63 1020.61 1020.64 1020.70 1020.78 1020.86 1020.92 1020.96 1020.96 1020.92 1020.83 1020.69 1020.49 1020.23 1019.91 1019.54 1019.12 1018.67 1018.21 1017.76 1017.34 1016.97 1016.66 1016.43 1016.29 1016.22 1016.22 1016.28 1016.37 1016.48 1016.60 1016.71 1016.81 1016.88 1016.93 1016.95 1016.95 1016.92 1016.87 1016.78 1016.66 1016.51 1016.32 1016.10
1019.92 1019.97 1020.08 1020.22 1020.37 1020.52 1020.64 1020.73 1020.78 1020.78 1020.72 1020.62 1020.45 1020.22 1019.94 1019.60 1019.21 1018.77 1018.32 1017.85 1017.40 1016.99 1016.64 1016.36 1016.16 1016.05 1016.02 1016.06 1016.16 1016.29 1016.44 1016.59 1016.74 1016.86 1016.95 1017.01 1017.04 1017.04 1017.02 1016.95 1016.86 1016.74 1016.59 1016.41
1019.29 1019.43 1019.63 1019.85 1020.07 1020.28 1020.44 1020.56 1020.63 1020.65 1020.61 1020.52 1020.37 1020.17 1019.91 1019.59 1019.22 1018.80 1018.34 1017.87 1017.40 1016.95 1016.55 1016.22 1015.98 1015.83 1015.77 1015.80 1015.89 1016.04 1016.23 1016.42 1016.61 1016.78 1016.92 1017.02 1017.08 1017.11 1017.11 1017.07 1017.01 1016.92 1016.82 1016.69
1018.74 1018.98 1019.27 1019.57 1019.86 1020.11 1020.30 1020.44 1020.51 1020.52 1020.48 1020.39 1020.25 1020.05 1019.81 1019.50 1019.15 1018.74 1018.28 1017.80 1017.31 1016.84 1016.40 1016.04 1015.75 1015.57 1015.49 1015.51 1015.61 1015.78 1016.00 1016.24 1016.47 1016.69 1016.87 1017.01 1017.11 1017.16 1017.18 1017.17 1017.14 1017.09 1017.02 1016.95
1018.22 1018.58 1018.96 1019.35 1019.70 1019.99 1020.20 1020.34 1020.40 1020.40 1020.34 1020.23 1020.08 1019.88 1019.64 1019.35 1019.00 1018.60 1018.15 1017.67 1017.17 1016.68 1016.22 1015.83 1015.52 1015.31 1015.22 1015.24 1015.35 1015.55 1015.79 1016.07 1016.35 1016.61 1016.84 1017.01 1017.14 1017.22 1017.26 1017.27 1017.26 1017.25 1017.23 1017.22
1017.74 1018.20 1018.68 1019.15 1019.55 1019.87 1020.10 1020.24 1020.29 1020.26 1020.18 1020.05 1019.89 1019.68 1019.44 1019.15 1018.82 1018.43 1017.99 1017.51 1017.01 1016.52 1016.05 1015.64 1015.32 1015.10 1015.00 1015.02 1015.15 1015.36 1015.64 1015.95 1016.27 1016.57 1016.83 1017.03 1017.19 1017.29 1017.35 1017.38 1017.39 1017.41 1017.43 1017.47
1017.26 1017.83 1018.40 1018.94 1019.39 1019.74 1019.98 1020.12 1020.15 1020.11 1020.02 1019.87 1019.69 1019.48 1019.24 1018.97 1018.64 1018.27 1017.85 1017.38 1016.89 1016.40 1015.93 1015.52 1015.19 1014.97 1014.86 1014.88 1015.02 1015.25 1015.55 1015.88 1016.23 1016.55 1016.84 1017.07 1017.24 1017.35 1017.43 1017.48 1017.51 1017.55 1017.61 1017.70
1016.82 1017.46 1018.11 1018.69 1019.19 1019.56 1019.82 1019.95 1019.99 1019.95 1019.84 1019.69 1019.52 1019.31 1019.08 1018.82 1018.52 1018.16 1017.76 1017.31 1016.83 1016.35 1015.88 1015.47 1015.14 1014.91 1014.80 1014.82 1014.96 1015.19 1015.50 1015.84 1016.20 1016.55 1016.84 1017.09 1017.27 1017.40 1017.49 1017.55 1017.60 1017.66 1017.75 1017.87
1016.42 1017.11 1017.80 1018.41 1018.93 1019.32 1019.59 1019.74 1019.78 1019.75 1019.66 1019.52 1019.36 1019.18 1018.97 1018.73 1018.45 1018.12 1017.74 1017.31 1016.84 1016.37 1015.91 1015.49 1015.16 1014.92 1014.80 1014.81 1014.93 1015.16 1015.46 1015.80 1016.17 1016.51 1016.82 1017.07 1017.26 1017.40 1017.49 1017.56 1017.63 1017.71 1017.82 1017.97
1016.09 1016.80 1017.49 1018.11 1018.63 1019.02 1019.30 1019.46 1019.52 1019.51 1019.45 1019.35 1019.22 1019.07 1018.89 1018.69 1018.43 1018.13 1017.77 1017.36 1016.91 1016.44 1015.98 1015.56 1015.21 1014.96 1014.82 1014.81 1014.91 1015.11 1015.40 1015.73 1016.08 1016.43 1016.73 1016.99 1017.19 1017.33 1017.44 1017.52 1017.60 1017.70 1017.83 1018.00
1015.85 1016.53 1017.19 1017.78 1018.28 1018.67 1018.94 1019.12 1019.21 1019.23 1019.21 1019.15 1019.07 1018.96 1018.83 1018.66 1018.44 1018.16 1017.83 1017.43 1016.99 1016.52 1016.06 1015.63 1015.27 1014.99 1014.83 1014.79 1014.86 1015.04 1015.30 1015.61 1015.94 1016.28 1016.58 1016.84 1017.05 1017.21 1017.33 1017.43 1017.53 1017.65 1017.80 1017.99
1015.69 1016.30 1016.90 1017.44 1017.89 1018.26 1018.53 1018.72 1018.84 1018.90 1018.93 1018.92 1018.89 1018.84 1018.75 1018.62 1018.43 1018.18 1017.87 1017.48 1017.04 1016.58 1016.11 1015.67 1015.29 1015.00 1014.80 1014.73 1014.77 1014.92 1015.15 1015.43 1015.75 1016.07 1016.37 1016.64 1016.86 1017.04 1017.18 1017.31 1017.43 1017.58 1017.75 1017.96
1015.58 1016.10 1016.61 1017.08 1017.48 1017.82 1018.08 1018.28 1018.43 1018.53 1018.60 1018.65 1018.68 1018.67 1018.63 1018.54 1018.38 1018.15 1017.85 1017.48 1017.05 1016.59 1016.12 1015.67 1015.27 1014.96 1014.74 1014.64 1014.65 1014.76 1014.96 1015.23 1015.53 1015.83 1016.13 1016.41 1016.64 1016.84 1017.02 1017.17 1017.33 1017.50 1017.70 1017.93
1015.46 1015.88 1016.30 1016.69 1017.04 1017.34 1017.59 1017.79 1017.96 1018.11 1018.23 1018.33 1018.40 1018.45 1018.44 1018.38 1018.25 1018.04 1017.76 1017.40 1016.98 1016.53 1016.06 1015.61 1015.21 1014.89 1014.66 1014.53 1014.52 1014.61 1014.78 1015.02 1015.30 1015.59 1015.89 1016.17 1016.42 1016.64 1016.84 1017.03 1017.22 1017.42 1017.65 1017.91
1015.25 1015.59 1015.93 1016.25 1016.54 1016.81 1017.05 1017.27 1017.46 1017.64 1017.80 1017.94 1018.06 1018.14 1018.17 1018.14 1018.03 1017.85 1017.58 1017.24 1016.84 1016.41 1015.95 1015.52 1015.13 1014.81 1014.57 1014.44 1014.41 1014.47 1014.62 1014.83 1015.09 1015.37 1015.66 1015.93 1016.19 1016.43 1016.65 1016.87 1017.09 1017.32 1017.58 1017.86
Thickness
5585 5584 5581 5577 5577 5581 5582 5583 5583 5585 5589 5590 5597 5604 5612 5620 5629 5636 5642 5647 5652 5656 5660 5664 5669 5674 5678 5681 5684 5686 5686 5684 5683 5683 5682 5682 5680 5679 5678 5677 5675 5673 5670 5667
5588 5589 5587 5580 5578 5580 5581 5582 5585 5588 5589 5593 5600 5608 5614 5618 5624 5630 5636 5641 5646 5651 5655 5658 5663 5668 5672 5674 5676 5678 5677 5676 5676 5676 5675 5674 5674 5673 5672 5671 5670 5667 5665 5662
5585 5589 5587 5574 5574 5576 5578 5578 5580 5581 5583 5594 5601 5607 5611 5615 5620 5626 5632 5637 5641 5644 5647 5651 5656 5660 5663 5666 5668 5669 5669 5668 5668 5667 5667 5666 5666 5665 5664 5664 5663 5662 5660 5657
5584 5587 5576 5575 5583 5582 5582 5582 5583 5586 5590 5595 5600 5608 5615 5617 5618 5623 5629 5634 5637 5640 5643 5647 5651 5654 5657 5659 5660 5660 5660 5660 5659 5658 5658 5657 5657 5656 5656 5656 5655 5655 5654 5652
5582 5581 5580 5584 5587 5585 5583 5585 5588 5588 5593 5599 5605 5614 5617 5622 5622 5625 5630 5634 5637 5640 5642 5645 5647 5649 5651 5651 5651 5652 5652 5651 5650 5649 5648 5648 5647 5647 5647 5647 5647 5647 5646 5646
5584 5584 5581 5584 5592 5592 5587 5588 5593 5592 5594 5598 5602 5603 5610 5621 5624 5630 5634 5637 5640 5642 5643 5644 5644 5645 5646 5645 5645 5645 5644 5643 5642 5641 5640 5638 5638 5638 5638 5638 5638 5638 5638 5637
5584 5583 5584 5593 5596 5594 5586 5588 5596 5596 5597 5598 5598 5600 5611 5620 5626 5632 5636 5640 5641 5641 5641 5641 5642 5642 5641 5640 5639 5638 5638 5636 5634 5633 5632 5630 5629 5628 5628 5628 5628 5628 5628 5628
5581 5582 5585 5601 5599 5594 5594 5598 5599 5600 5602 5603 5606 5612 5619 5625 5630 5634 5637 5640 5641 5639 5638 5639 5639 5639 5637 5635 5634 5633 5632 5629 5626 5624 5623 5622 5620 5619 5619 5619 5619 5618 5618 5618
5592 5593 5602 5605 5605 5607 5604 5602 5604 5604 5607 5608 5612 5617 5622 5627 5631 5634 5637 5639 5639 5638 5637 5638 5637 5636 5634 5632 5631 5628 5625 5622 5619 5617 5615 5613 5612 5610 5610 5609 5609 5608 5608 5608
5602 5604 5608 5610 5610 5611 5610 5609 5610 5610 5612 5615 5617 5621 5625 5629 5632 5635 5637 5638 5639 5638 5637 5636 5636 5634 5632 5630 5628 5624 5621 5618 5615 5612 5609 5607 5605 5604 5602 5601 5600 5599 5599 5599
5608 5611 5613 5614 5614 5615 5616 5616 5616 5617 5619 5620 5622 5624 5627 5629 5632 5635 5637 5638 5639 5638 5637 5637 5636 5634 5632 5630 5627 5623 5620 5617 5614 5610 5607 5604 5601 5598 5596 5595 5593 5593 5592 5592
5618 5620 5616 5618 5621 5621 5620 5620 5621 5621 5622 5624 5625 5626 5629 5631 5634 5636 5637 5639 5639 5640 5639 5639 5638 5637 5635 5632 5628 5625 5621 5618 5614 5611 5607 5603 5600 5597 5594 5592 5591 5590 5589 5588
5637 5633 5628 5629 5627 5627 5625 5625 5625 5625 5625 5626 5627 5629 5631 5632 5636 5638 5640 5641 5642 5642 5643 5643 5642 5640 5639 5636 5632 5628 5624 5620 5616 5613 5609 5605 5602 5598 5594 5593 5592 5590 5588 5587
5644 5638 5633 5632 5630 5630 5629 5629 5628 5627 5627 5628 5629 5631 5632 5634 5637 5640 5642 5644 5645 5646 5647 5647 5646 5645 5644 5641 5636 5632 5628 5624 5620 5616 5612 5608 5604 5600 5596 5593 5590 5588 5587 5587
5648 5645 5640 5637 5634 5632 5631 5629 5628 5627 5628 5629 5631 5632 5634 5636 5638 5642 5645 5648 5649 5650 5652 5652 5651 5651 5650 5646 5641 5636 5632 5627 5623 5619 5615 5611 5607 5603 5599 5595 5591 5588 5587 5587
5653 5648 5643 5639 5636 5634 5632 5631 5628 5627 5628 5629 5631 5633 5635 5638 5641 5644 5647 5649 5650 5652 5654 5654 5655 5655 5654 5651 5646 5641 5636 5634 5628 5623 5619 5615 5611 5606 5602 5598 5594 5591 5589 5586
5655 5647 5643 5639 5637 5635 5633 5632 5629 5628 5628 5629 5631 5634 5636 5639 5643 5646 5649 5651 5653 5654 5656 5657 5658 5659 5658 5655 5650 5645 5640 5637 5633 5627 5623 5618 5614 5610 5605 5601 5598 5594 5591 5589
5668 5661 5653 5647 5641 5637 5636 5634 5632 5630 5630 5630 5632 5634 5636 5638 5641 5644 5648 5652 5655 5658 5660 5660 5661 5662 5662 5659 5654 5649 5644 5639 5635 5631 5626 5622 5617 5613 5609 5605 5601 5598 5594 5592
5668 5662 5655 5650 5646 5641 5637 5635 5633 5631 5631 5630 5631 5632 5634 5637 5640 5643 5647 5650 5653 5656 5659 5661 5664 5664 5663 5661 5657 5652 5647 5642 5637 5633 5629 5626 5620 5616 5612 5608 5605 5601 5598 5595
5667 5663 5657 5652 5649 5644 5640 5638 5636 5633 5632 5630 5630 5631 5633 5635 5639 5642 5645 5648 5651 5653 5657 5661 5663 5664 5663 5662 5659 5654 5649 5645 5640 5636 5631 5627 5623 5619 5615 5612 5608 5605 5602 5598
5666 5662 5658 5653 5650 5647 5644 5641 5637 5635 5633 5631 5629 5629 5630 5633 5636 5639 5643 5647 5653 5655 5658 5662 5663 5663 5663 5662 5660 5655 5651 5647 5643 5638 5634 5630 5626 5623 5619 5616 5612 5609 5605 5601
5664 5660 5657 5653 5650 5646 5643 5640 5637 5635 5633 5631 5630 5629 5629 5631 5633 5637 5642 5645 5650 5655 5658 5661 5663 5664 5664 5663 5659 5656 5653 5649 5645 5640 5637 5633 5629 5626 5623 5619 5616 5612 5608 5604
5661 5658 5655 5651 5648 5645 5642 5639 5637 5636 5634 5632 5630 5628 5628 5628 5629 5632 5638 5645 5648 5654 5658 5661 5664 5666 5666 5663 5659 5657 5654 5650 5646 5643 5639 5636 5632 5629 5626 5622 5619 5615 5611 5607
5655 5652 5650 5647 5644 5641 5639 5638 5636 5634 5633 5632 5630 5629 5628 5627 5630 5633 5636 5641 5647 5652 5656 5660 5664 5667 5666 5662 5659 5656 5654 5651 5648 5644 5641 5638 5634 5631 5628 5624 5621 5617 5614 5610
5649 5646 5644 5639 5637 5638 5638 5637 5634 5633 5632 5631 5630 5630 5629 5628 5628 5631 5634 5639 5644 5649 5653 5657 5661 5664 5663 5661 5658 5656 5653 5651 5648 5645 5642 5639 5636 5633 5629 5626 5623 5619 5615 5611
5641 5640 5639 5639 5638 5636 5634 5632 5630 5630 5629 5629 5629 5630 5629 5629 5629 5631 5633 5637 5640 5645 5648 5652 5655 5658 5659 5659 5657 5655 5653 5651 5649 5646 5643 5640 5637 5634 5631 5628 5624 5621 5617 5613
5631 5631 5630 5629 5629 5629 5629 5628 5628 5628 5627 5627 5627 5628 5628 5628 5629 5630 5632 5634 5636 5639 5642 5646 5650 5653 5654 5655 5655 5654 5653 5650 5648 5646 5643 5641 5638 5635 5632 5629 5626 5622 5618 5615